• Processing (Info)

  • MPEC 2010-U43 : 2010 UX6

    The following Minor Planet Electronic Circular may be linked-to from your own Web pages, but must not otherwise be redistributed electronically.

    A form allowing access to any MPEC is at the bottom of this page.


    Read MPEC 2010-U42 Read MPEC 2010-U44


    M.P.E.C. 2010-U43                                Issued 2010 Oct. 28, 21:12 UT
    
         The Minor Planet Electronic Circulars contain information on unusual
             minor planets and routine data on comets.  They are published
       on behalf of Commission 20 of the International Astronomical Union by the
              Minor Planet Center, Smithsonian Astrophysical Observatory,
                              Cambridge, MA 02138, U.S.A.
    
                 Prepared using the Tamkin Foundation Computer Network
    
                                  MPC@CFA.HARVARD.EDU
           URL https://www.minorplanetcenter.org/iau/mpc.html  ISSN 1523-6714
    
                                       2010 UX6
    
    Observations:
         K10U06X* C2010 10 27.77604 00 47 43.41 +07 25 52.6          18.2 V EU043J75
         K10U06X  C2010 10 27.79036 00 47 46.13 +07 26 00.8          18.7 V EU043J75
         K10U06X  C2010 10 27.80469 00 47 48.73 +07 26 09.6          18.9 V EU043J75
         K10U06X  C2010 10 27.83399 00 47 54.10 +07 26 27.1          18.9 V EU043J75
         K10U06X  C2010 10 27.95486 00 48 15.47 +07 27 37.6          18.7 V EU043J75
         K10U06X  C2010 10 27.95769 00 48 16.01 +07 27 39.5          18.5 V EU043J75
         K10U06X  C2010 10 27.96046 00 48 16.49 +07 27 40.8          18.5 V EU043J75
         K10U06X  C2010 10 27.96322 00 48 16.99 +07 27 42.5          18.5 V EU043J75
         K10U06X KC2010 10 27.96671 00 48 16.85 +07 27 33.3          18.3 R EU043204
         K10U06X HC2010 10 27.96761 00 48 17.91 +07 27 27.7                 EU043J95
         K10U06X KC2010 10 27.97080 00 48 17.59 +07 27 35.8                 EU043204
         K10U06X KC2010 10 27.97519 00 48 18.40 +07 27 38.2                 EU043204
         K10U06X KC2010 10 27.97986 00 48 19.25 +07 27 40.7                 EU043204
         K10U06X SC2010 10 27.98039 00 48 20.22 +07 27 35.8          18.6 R EU043J95
         K10U06X KC2010 10 27.98391 00 48 20.00 +07 27 43.0                 EU043204
         K10U06X KC2010 10 28.15311300 48 58.33 +07 29 30.4          18.9 V EU043H21
         K10U06X KC2010 10 28.15995300 48 59.57 +07 29 34.2          18.8 V EU043H21
         K10U06X KC2010 10 28.16587600 49 00.67 +07 29 37.8          18.7 V EU043H21
         K10U06X KC2010 10 28.17423 00 49 02.82 +07 29 43.8          19.0 R EU043H36
         K10U06X KC2010 10 28.17723 00 49 03.38 +07 29 45.4          19.1 R EU043H36
         K10U06X KC2010 10 28.18323 00 49 04.56 +07 29 48.8          18.9 R EU043H36
         K10U06X KC2010 10 28.25054 00 49 17.56 +07 30 37.4          18.6 R EU043H15
         K10U06X KC2010 10 28.25726 00 49 18.80 +07 30 41.1          18.5 R EU043H15
         K10U06X  C2010 10 28.25915 00 49 19.59 +07 30 43.6          19.0 R EU043854
         K10U06X KC2010 10 28.26380 00 49 19.98 +07 30 45.0          18.6 R EU043H15
         K10U06X  C2010 10 28.26396 00 49 20.44 +07 30 46.1          18.6 R EU043854
         K10U06X  C2010 10 28.26879 00 49 21.38 +07 30 48.8          18.6 R EU043854
         K10U06X KC2010 10 28.27049 00 49 21.20 +07 30 48.7          18.6 R EU043H15
         K10U06X  C2010 10 28.79959 00 51 23.09 +07 35 55.4          19.4 V EU043104
         K10U06X  C2010 10 28.80300 00 51 23.77 +07 35 57.1          19.0 V EU043104
         K10U06X  C2010 10 28.80693 00 51 24.54 +07 35 58.3          19.2 V EU043104
         K10U06X KC2010 10 28.82287 00 51 27.59 +07 36 06.8          19.6 R EU043473
         K10U06X KC2010 10 28.82443 00 51 27.91 +07 36 08.0          19.7 R EU043473
         K10U06X KC2010 10 28.82700 00 51 28.44 +07 36 09.7          19.6 R EU043473
         K10U06X  C2010 10 28.82842 00 51 29.05 +07 36 11.4          18.3 R EU043A24
         K10U06X KC2010 10 28.82957 00 51 28.96 +07 36 11.3          19.8 R EU043473
         K10U06X  C2010 10 28.83137 00 51 29.67 +07 36 13.1          18.6 R EU043A24
         K10U06X  C2010 10 28.83399 00 51 30.19 +07 36 14.8          18.4 R EU043A24
         K10U06X  C2010 10 28.83502 00 51 30.37 +07 36 15.5          18.6 R EU043587
         K10U06X  C2010 10 28.83661 00 51 30.72 +07 36 16.3          18.4 R EU043A24
         K10U06X  C2010 10 28.83664 00 51 30.70 +07 36 16.2          18.7 R EU043587
         K10U06X  C2010 10 28.83850 00 51 31.09 +07 36 17.3          18.7 R EU043587
         K10U06X  C2010 10 28.83956 00 51 31.36 +07 36 18.3          18.5 R EU043A24
         K10U06X  C2010 10 28.85305 00 51 33.77 +07 36 27.0          18.5 R EU043235
         K10U06X  C2010 10 28.85604 00 51 34.41 +07 36 28.6          18.7 R EU043235
    
    Observer details:
    104 San Marcello Pistoiese.  Observers L. Tesi, M. Garozzo.  Measurer L. Tesi.
        0.60-m f/4 reflector + CCD.
    204 Schiaparelli Observatory.  Observer L. Buzzi.  0.60-m f/4.64 reflector
        + CCD.
    235 CAST Observatory, Talmassons.  Observer R. Ligustri.  0.35-m f/6 reflector
        + CCD.
    473 Remanzacco.  Observers L. Donato, V. Gonano, E. Guido, G. Sostero.  0.45-m
        f/4.4 Newtonian reflector + CCD.
    587 Sormano.  Observers F. Manca, P. Sicoli, A. Testa.  Measurer F. Manca.
        0.5-m f/6.8 reflector + CCD.
    854 Sabino Canyon Observatory, Tucson.  Observer J. E. McGaha.  0.36-m f/10.0
        Schmidt-Cassegrain + CCD.
    A24 New Millennium Observatory, Mozzate.  Observer E. Cozzi.  0.36-m f/7.6
        Schmidt-Cassegrain + CCD.
    H15 ISON-NM Observatory, Mayhill.  Observers L. Elenin, I. Molotov.  Measurer
        L. Elenin.  0.45-m f/2.8 astrograph + CCD.
    H21 Astronomical Research Observatory, Westfield.  Observer R. Holmes.
        Measurers S. Foglia, T. Vorobjov.  0.76-m f/6.65 Ritchey-Chretien + CCD.
    H36 Sandlot Observatory, Scranton.  Observer G. Hug.  0.56-m reflector + CCD.
    J75 OAM Observatory, La Sagra.  Observers S. Sanchez, J. Nomen, R. Stoss,
        J. Rodriguez, M. Hurtado, W. K. Y. Yeung.  0.40-m f/10 reflector + CCD,
        0.45-m f/2.8 reflector + CCD.
    J95 Great Shefford.  Observer P. Birtwhistle.  0.40-m f/6.0 Schmidt-Cassegrain
        + CCD.
    
    Orbital elements:
    2010 UX6                                                 Earth MOID = 0.0205 AU
    Epoch 2010 July 23.0 TT = JDT 2455400.5                 MPC
    M 329.09065              (2000.0)            P               Q
    n   0.24162589     Peri.  208.73343     +0.35681532     -0.93404986
    a   2.5529388      Node   220.36715     +0.86153890     +0.33535373
    e   0.6072909      Incl.    1.35244     +0.36115587     +0.12283619
    P   4.08           H   23.1           G   0.15           U   7
    Residuals in seconds of arc
    101027 J75  0.4-  0.2+    101028 H21  0.2+  0.0     101028 104  0.7-  0.9-
    101027 J75  0.3+  0.3-    101028 H21  0.1+  0.2-    101028 473  0.1-  0.4-
    101027 J75  0.4-  0.2-    101028 H21  0.4+  0.1-    101028 473  0.1-  0.2-
    101027 J75  0.1+  0.4-    101028 H36  0.1-  0.1+    101028 473  0.0   0.2-
    101027 J75  0.7-  0.4-    101028 H36  0.1+  0.1-    101028 A24  0.1-  0.3+
    101027 J75  0.1-  0.1-    101028 H36  1.4+  0.2-    101028 473  0.1-  0.3-
    101027 J75  0.2-  0.4-    101028 H15  0.2-  0.4+    101028 A24  0.2+  0.1+
    101027 J75  0.0   0.2-    101028 H15  0.1+  0.2+    101028 A24  0.1-  0.0
    101027 204  0.4-  0.5-    101028 854  0.5-  0.5+    101028 587  0.1-  0.3+
    101027 J95  0.6+  0.2-    101028 H15  0.1-  0.3+    101028 A24  0.2-  0.2-
    101027 204  0.5-  0.2-    101028 854  0.8-  0.2+    101028 587  0.2-  0.0
    101027 204  0.3-  0.3-    101028 854  0.1+  0.1+    101028 587  0.0   0.1-
    101027 204  0.4-  0.3-    101028 H15  0.2-  0.1+    101028 A24  0.4+  0.1-
    101027 J95  0.0   0.7+    101028 104  0.2+  1.1+    101028 235  0.1+  0.1-
    101027 204  0.3-  0.2-    101028 104  0.1-  0.5+    101028 235  0.5+  0.4-
    
    Ephemeris:
    2010 UX6                 a,e,i = 2.55, 0.61, 1                   q = 1.0026
    Date    TT    R. A. (2000) Decl.     Delta      r     Elong.  Phase     V
    2010 10 21    00 31.66   +06 42.7    0.130    1.120   162.3    15.7    19.8
    2010 10 26    00 42.22   +07 11.7    0.104    1.093   160.1    18.1    19.3
    2010 10 31    01 00.97   +08 03.3    0.0805   1.069   159.8    18.7    18.7
    2010 11 05    01 36.53   +09 35.7    0.0586   1.048   163.5    15.5    17.9
    2010 11 10    02 51.02   +12 07.7    0.0404   1.031   174.7     5.1    16.6
    2010 11 15    05 17.57   +13 28.5    0.0319   1.017   151.3    27.8    16.9
    2010 11 20    07 47.06   +09 35.6    0.0390   1.008   119.8    58.3    18.2
    2010 11 25    09 05.11   +05 50.3    0.0556   1.003   105.2    71.7    19.3
    2010 11 30    09 43.50   +03 43.4    0.0752   1.003   100.5    75.3    20.1
    2010 12 05    10 04.79   +02 31.8    0.0956   1.007   100.1    74.5    20.6
    2010 12 10    10 17.65   +01 50.5    0.116    1.015   101.9    71.7    21.0
    2010 12 15    10 25.65   +01 27.8    0.136    1.028   105.0    67.7    21.2
    2010 12 20    10 30.44   +01 18.7    0.155    1.044   108.9    63.1    21.4
    2010 12 25    10 32.79   +01 21.0    0.174    1.065   113.4    58.0    21.5
    2010 12 30    10 33.11   +01 33.9    0.192    1.088   118.4    52.6    21.6
    2011 01 04    10 31.61   +01 57.3    0.210    1.115   124.0    47.0    21.7
    2011 01 09    10 28.54   +02 30.3    0.229    1.144   130.0    41.2    21.8
    2011 01 14    10 24.18   +03 11.8    0.248    1.175   136.3    35.3    21.9
    2011 01 19    10 18.85   +04 00.0    0.269    1.209   142.9    29.4    21.9
    
    Sonia Keys                   (C) Copyright 2010 MPC           M.P.E.C. 2010-U43
    

    Read MPEC 2010-U42 Read MPEC 2010-U44


    MPEC number:

    Enter an MPEC number in one of the following forms:

    • 1997-B01 (the full form)
    • J97B01 (the packed version of the full form)
    • B01 (the abbreviated form)